Weather History for KRYV - November, 2012

Change the Weather History Date:

Wednesday, November 21, 2012

  Actual Average Record
Temperature  
Mean Temperature 43 °F -  
Max Temperature 56 °F 40 °F 63 °F (1982)
Min Temperature 30 °F 26 °F 1 °F (2014)
Degree Days  
Heating Degree Days 22    
Moisture  
Dew Point 38 °F    
Average Humidity 85    
Maximum Humidity 100    
Minimum Humidity 57    
Precipitation  
Precipitation 0.00 in - - ()
Sea Level Pressure  
Sea Level Pressure 30.10 in    
Wind  
Wind Speed 4 mph (South)    
Max Wind Speed 15 mph    
Max Gust Speed 18 mph    
Visibility 5 miles    
Events Fog    
Averages and records for this station are not official NWS values.
T = Trace of Precipitation, MM = Missing Value Source: NWS Daily Summary

Daily Weather History Graph

Daily Weather History Graph

Search for Another Location

Airport or City:

Trip Planner

Search our weather history database for the weather conditions in past years. The results will help you decide how hot, cold, wet, or windy it might be!

Date:

Astronomy

Nov. 21, 2012 Rise Set
Actual Time 6:55 AM CST 4:25 PM CST
Civil Twilight 6:24 AM CST 4:56 PM CST
Nautical Twilight 5:49 AM CST 5:31 PM CST
Astronomical Twilight 5:15 AM CST 6:05 PM CST
Moon 12:51 PM CST (11/21) 12:04 AM CST (11/21)
Length of Visible Light 10h 32m
Length of Day
9h 29m
First Quarter, 62% of the Moon is Illuminated
Nov 21
First Quarter
Nov 28
Full
Dec 6
Last Quarter
Dec 13
New
Dec 19
First Quarter

Hourly Weather History & Observations

Time (CST) Temp. Windchill Dew Point Humidity Pressure Visibility Wind Dir Wind Speed Gust Speed Precip Events Conditions
12:15 AM 30.9 °F - 30.9 °F 100% 30.15 in 0.2 mi Calm Calm - N/A Fog Light Freezing Fog
12:35 AM 32.0 °F - 32.0 °F 100% 30.15 in 0.2 mi Calm Calm - N/A Fog Fog
12:55 AM 32.0 °F - 32.0 °F 100% 30.15 in 0.2 mi Calm Calm - N/A Fog Fog
1:15 AM 32.0 °F - 32.0 °F 100% 30.15 in 0.2 mi Calm Calm - N/A Fog Fog
1:35 AM 32.0 °F - 32.0 °F 100% 30.15 in 0.2 mi Calm Calm - N/A Fog Fog
1:55 AM 32.0 °F - 32.0 °F 100% 30.16 in 0.2 mi Calm Calm - N/A Fog Fog
2:15 AM 32.4 °F - 32.4 °F 100% 30.16 in 0.2 mi Calm Calm - N/A Fog Fog
2:35 AM 32.2 °F - 32.2 °F 100% 30.16 in 0.2 mi Calm Calm - N/A Fog Fog
2:55 AM 32.2 °F - 32.2 °F 100% 30.15 in 0.2 mi Calm Calm - N/A Fog Fog
3:15 AM 32.0 °F - 32.0 °F 100% 30.16 in 0.2 mi Calm Calm - N/A Fog Fog
3:35 AM 32.2 °F - 32.2 °F 100% 30.16 in 0.2 mi Calm Calm - N/A Fog Fog
3:55 AM 32.0 °F - 32.0 °F 100% 30.16 in 0.2 mi Calm Calm - N/A Fog Fog
4:15 AM 31.6 °F - 31.6 °F 100% 30.15 in 0.5 mi Calm Calm - N/A Fog Light Freezing Fog
4:55 AM 31.6 °F - 31.6 °F 100% 30.17 in 0.2 mi Calm Calm - N/A Fog Light Freezing Fog
5:15 AM 32.0 °F - 32.0 °F 100% 30.17 in 0.2 mi Calm Calm - N/A Fog Fog
5:35 AM 32.0 °F - 32.0 °F 100% 30.18 in 0.2 mi Calm Calm - N/A Fog Fog
6:15 AM 32.7 °F 29.6 °F 32.7 °F 100% 30.17 in 0.2 mi SSE 3.5 mph - N/A Fog Fog
6:35 AM 32.5 °F 29.3 °F 32.5 °F 100% 30.17 in 0.2 mi South 3.5 mph - N/A Fog Fog
7:55 AM 33.8 °F 29.6 °F 33.8 °F 100% 30.18 in 0.2 mi South 4.6 mph - N/A Fog Fog
8:15 AM 33.8 °F 29.6 °F 33.8 °F 100% 30.17 in 0.2 mi South 4.6 mph - N/A Fog Fog
8:35 AM 34.0 °F 29.8 °F 34.0 °F 100% 30.17 in 0.2 mi South 4.6 mph - N/A Fog Fog
8:55 AM 35.1 °F 29.3 °F 35.1 °F 100% 30.17 in 0.2 mi South 6.9 mph - N/A Fog Fog
9:15 AM 35.6 °F 31.7 °F 35.6 °F 100% 30.17 in 0.2 mi South 4.6 mph - N/A Fog Fog
9:35 AM 37.2 °F 33.6 °F 37.2 °F 100% 30.17 in 0.2 mi South 4.6 mph - N/A Fog Fog
9:55 AM 38.3 °F 33.9 °F 38.3 °F 100% 30.17 in 0.5 mi South 5.8 mph - N/A Fog Fog
10:15 AM 39.4 °F 34.5 °F 39.4 °F 100% 30.17 in 1.5 mi SSW 6.9 mph - N/A   Overcast
10:35 AM 40.8 °F 35.6 °F 40.8 °F 100% 30.16 in 2.5 mi SSW 8.1 mph - N/A   Overcast
11:15 AM 45.7 °F 41.5 °F 43.3 °F 92% 30.14 in 7.0 mi South 8.1 mph - N/A   Scattered Clouds
11:35 AM 47.3 °F - 43.2 °F 86% 30.14 in 7.0 mi SSW 10.4 mph - N/A   Clear
11:55 AM 49.6 °F - 43.7 °F 80% 30.12 in 10.0 mi SSW 8.1 mph 16.1 mph N/A   Clear
12:15 PM 51.4 °F - 43.3 °F 74% 30.11 in 10.0 mi SSW 11.5 mph - N/A   Clear
12:35 PM 52.9 °F - 42.3 °F 67% 30.10 in 10.0 mi SSW 11.5 mph 17.3 mph N/A   Clear
12:55 PM 54.0 °F - 42.4 °F 65% 30.09 in 10.0 mi South 15.0 mph - N/A   Clear
1:15 PM 55.4 °F - 42.1 °F 61% 30.09 in 10.0 mi SSW 10.4 mph - N/A   Clear
1:35 PM 56.3 °F - 41.2 °F 57% 30.08 in 10.0 mi SSW 13.8 mph 18.4 mph N/A   Clear
2:15 PM 55.4 °F - 41.2 °F 59% 30.06 in 10.0 mi South 11.5 mph - N/A   Clear
2:35 PM 55.0 °F - 41.2 °F 60% 30.06 in 10.0 mi South 9.2 mph - N/A   Clear
2:55 PM 54.9 °F - 41.5 °F 61% 30.05 in 10.0 mi South 11.5 mph - N/A   Clear
3:15 PM 54.5 °F - 42.3 °F 63% 30.05 in 10.0 mi South 8.1 mph - N/A   Clear
3:35 PM 54.0 °F - 43.0 °F 66% 30.04 in 10.0 mi South 9.2 mph - N/A   Clear
3:55 PM 53.6 °F - 43.0 °F 67% 30.04 in 10.0 mi South 11.5 mph - N/A   Clear
4:15 PM 52.7 °F - 42.8 °F 69% 30.04 in 10.0 mi South 6.9 mph - N/A   Clear
4:35 PM 52.0 °F - 42.4 °F 70% 30.03 in 10.0 mi South 9.2 mph - N/A   Clear
4:55 PM 51.8 °F - 41.9 °F 69% 30.03 in 10.0 mi South 9.2 mph - N/A   Clear
5:15 PM 51.3 °F - 41.0 °F 68% 30.03 in 10.0 mi South 8.1 mph - N/A   Clear
5:35 PM 50.7 °F - 41.0 °F 69% 30.04 in 10.0 mi South 8.1 mph - N/A   Clear
5:55 PM 49.6 °F - 40.3 °F 70% 30.04 in 10.0 mi South 4.6 mph - N/A   Clear
6:15 PM 49.1 °F - 41.5 °F 75% 30.04 in 10.0 mi South 6.9 mph - N/A   Clear
6:35 PM 48.2 °F - 42.3 °F 80% 30.03 in 10.0 mi South 6.9 mph - N/A   Clear
6:55 PM 48.2 °F - 42.1 °F 79% 30.03 in 10.0 mi South 9.2 mph - N/A   Clear
7:15 PM 47.5 °F - 42.1 °F 82% 30.03 in 7.0 mi South 8.1 mph - N/A   Clear
7:35 PM 47.3 °F - 41.9 °F 82% 30.03 in 7.0 mi South 8.1 mph - N/A   Clear
7:55 PM 46.9 °F - 41.7 °F 82% 30.03 in 7.0 mi South 6.9 mph - N/A   Clear
8:15 PM 46.6 °F - 41.4 °F 82% 30.03 in 10.0 mi South 6.9 mph - N/A   Clear
8:35 PM 46.6 °F - 41.2 °F 81% 30.03 in 10.0 mi South 8.1 mph - N/A   Clear
8:55 PM 46.0 °F 41.9 °F 41.0 °F 83% 30.02 in 7.0 mi South 8.1 mph - N/A   Clear
9:15 PM 46.4 °F 41.9 °F 40.8 °F 81% 30.01 in 10.0 mi South 9.2 mph - N/A   Clear
9:55 PM 45.9 °F 42.3 °F 40.5 °F 81% 30.02 in 10.0 mi South 6.9 mph - N/A   Clear
10:15 PM 45.7 °F 42.7 °F 40.1 °F 81% 30.01 in 10.0 mi South 5.8 mph - N/A   Clear
10:35 PM 45.0 °F 41.2 °F 39.9 °F 82% 30.01 in 7.0 mi South 6.9 mph - N/A   Clear
10:55 PM 43.9 °F 41.3 °F 39.4 °F 84% 30.01 in 7.0 mi South 4.6 mph - N/A   Clear
11:15 PM 43.2 °F 39.7 °F 39.0 °F 85% 30.01 in 7.0 mi South 5.8 mph - N/A   Clear
11:35 PM 44.1 °F 41.5 °F 39.2 °F 83% 30.01 in 7.0 mi South 4.6 mph - N/A   Clear
11:55 PM 45.0 °F 41.2 °F 39.4 °F 81% 30.01 in 7.0 mi SSW 6.9 mph - N/A   Clear